Hickory, NC

9:23 PM EST on February 25, 2017 (GMT -0500)
Hickory Regional

Weather History for KHKY - March, 2011

Change the Weather History Date:

Wednesday, March 30, 2011

  Actual Average Record
Temperature  
Mean Temperature 45 °F -  
Max Temperature 48 °F 66 °F 85 °F (1985)
Min Temperature 42 °F 45 °F 21 °F (1964)
Degree Days  
Heating Degree Days 20    
Moisture  
Dew Point 44 °F    
Average Humidity 94    
Maximum Humidity 100    
Minimum Humidity 74    
Precipitation  
Precipitation 0.68 in - - ()
Sea Level Pressure  
Sea Level Pressure 29.90 in    
Wind  
Wind Speed 5 mph (NE)    
Max Wind Speed 10 mph    
Max Gust Speed -    
Visibility 4 miles    
Events Rain    
Averages and records for this station are not official NWS values.
T = Trace of Precipitation, MM = Missing Value Source: NWS Daily Summary

Daily Weather History Graph

Daily Weather History Graph

Search for Another Location

Airport or City:

Trip Planner

Search our weather history database for the weather conditions in past years. The results will help you decide how hot, cold, wet, or windy it might be!

Date:

Astronomy

Mar. 30, 2011 Rise Set
Actual Time 7:15 AM EDT 7:45 PM EDT
Civil Twilight 6:49 AM EDT 8:11 PM EDT
Nautical Twilight 6:19 AM EDT 8:41 PM EDT
Astronomical Twilight 5:48 AM EDT 9:12 PM EDT
Moon 5:01 AM EDT (3/30) 4:28 PM EDT (3/30)
Length of Visible Light 13h 21m
Length of Day
12h 30m
Waning Crescent, 13% of the Moon is Illuminated
Mar 30
Waning Crescent
Apr 3
New
Apr 11
First Quarter
Apr 17
Full
Apr 24
Last Quarter

Hourly Weather History & Observations

Time (EDT) Temp. Windchill Dew Point Humidity Pressure Visibility Wind Dir Wind Speed Gust Speed Precip Events Conditions
12:53 AM 48.0 °F - 39.9 °F 74% 30.05 in 10.0 mi NNE 3.5 mph - N/A   Mostly Cloudy
1:53 AM 48.9 °F - 41.0 °F 74% 30.02 in 10.0 mi NE 4.6 mph - N/A   Overcast
2:53 AM 48.9 °F - 41.0 °F 74% 30.02 in 10.0 mi Calm Calm - N/A   Overcast
3:53 AM 48.2 °F - 42.8 °F 82% 30.03 in 10.0 mi ENE 5.8 mph - N/A Rain Light Rain
4:53 AM 46.0 °F 43.9 °F 44.1 °F 93% 29.97 in 2.5 mi North 4.6 mph - 0.07 in Rain Heavy Rain
5:29 AM 46.4 °F 42.4 °F 44.6 °F 93% 29.98 in 2.5 mi ENE 8.1 mph - 0.13 in Rain Heavy Rain
5:42 AM 46.4 °F - 44.6 °F 93% 30.00 in 3.0 mi Calm Calm - 0.15 in Rain Light Rain
5:53 AM 46.0 °F 43.9 °F 45.0 °F 96% 29.97 in 4.0 mi East 4.6 mph - 0.16 in Rain Rain
6:12 AM 46.4 °F 43.5 °F 44.6 °F 93% 30.00 in 4.0 mi NE 5.8 mph - 0.00 in Rain Light Rain
6:25 AM 46.4 °F 43.5 °F 44.6 °F 93% 30.00 in 3.0 mi NNE 5.8 mph - 0.01 in Rain Light Rain
6:32 AM 46.4 °F 42.9 °F 44.6 °F 93% 30.00 in 2.5 mi North 6.9 mph - 0.03 in Rain Rain
6:41 AM 44.6 °F 40.2 °F 44.6 °F 100% 30.00 in 2.0 mi NNE 8.1 mph - 0.06 in Rain Heavy Rain
6:53 AM 45.0 °F 43.5 °F 45.0 °F 100% 30.00 in 2.0 mi North 3.5 mph - 0.10 in Rain Heavy Rain
7:10 AM 44.6 °F 43.1 °F 44.6 °F 100% 30.03 in 1.8 mi NNE 3.5 mph - 0.09 in Rain Heavy Rain
7:32 AM 44.6 °F 42.2 °F 44.6 °F 100% 30.04 in 2.0 mi North 4.6 mph - 0.20 in Rain Heavy Rain
7:53 AM 45.0 °F 41.8 °F 45.0 °F 100% 30.01 in 1.2 mi North 5.8 mph - 0.28 in Rain Heavy Rain
8:53 AM 45.0 °F 39.7 °F 44.1 °F 97% 30.00 in 2.5 mi NE 10.4 mph - 0.07 in Rain Light Rain
9:08 AM 44.6 °F 39.7 °F 44.6 °F 100% 30.02 in 3.0 mi NE 9.2 mph - 0.00 in Rain Light Rain
9:53 AM 45.0 °F 41.8 °F 44.1 °F 97% 29.98 in 5.0 mi Variable 5.8 mph - 0.00 in   Overcast
10:53 AM 46.0 °F 44.8 °F 44.1 °F 93% 29.94 in 5.0 mi East 3.5 mph - N/A   Overcast
11:53 AM 46.0 °F - 45.0 °F 96% 29.94 in 6.0 mi Calm Calm - N/A   Overcast
12:53 PM 46.0 °F 43.9 °F 44.1 °F 93% 29.91 in 4.0 mi NE 4.6 mph - N/A   Overcast
1:19 PM 46.4 °F 42.4 °F 44.6 °F 93% 29.93 in 2.5 mi NE 8.1 mph - N/A   Overcast
1:53 PM 45.0 °F 40.6 °F 44.1 °F 97% 29.89 in 1.8 mi NE 8.1 mph - N/A   Overcast
2:36 PM 44.6 °F 41.4 °F 44.6 °F 100% 29.89 in 2.0 mi NE 5.8 mph - 0.00 in   Overcast
2:53 PM 44.6 °F 39.7 °F 44.6 °F 100% 29.88 in 2.0 mi NE 9.2 mph - N/A   Overcast
3:08 PM 44.6 °F 42.2 °F 44.6 °F 100% 29.89 in 3.0 mi NE 4.6 mph - N/A   Overcast
3:17 PM 44.6 °F 41.4 °F 44.6 °F 100% 29.88 in 2.0 mi NE 5.8 mph - N/A   Overcast
3:27 PM 44.6 °F 41.4 °F 44.6 °F 100% 29.88 in 1.8 mi ENE 5.8 mph - 0.00 in Rain Light Rain
3:49 PM 46.4 °F 43.5 °F 44.6 °F 93% 29.85 in 1.8 mi ENE 5.8 mph - 0.00 in   Overcast
3:53 PM 46.0 °F 43.9 °F 44.1 °F 93% 29.83 in 1.8 mi ENE 4.6 mph - 0.00 in   Overcast
4:00 PM 46.4 °F 44.3 °F 44.6 °F 93% 29.85 in 2.5 mi NE 4.6 mph - N/A   Overcast
4:38 PM 46.4 °F 42.9 °F 44.6 °F 93% 29.84 in 3.0 mi NE 6.9 mph - N/A   Overcast
4:53 PM 46.0 °F 43.9 °F 44.1 °F 93% 29.81 in 3.0 mi NE 4.6 mph - N/A   Overcast
5:08 PM 46.4 °F 42.9 °F 44.6 °F 93% 29.82 in 2.0 mi NE 6.9 mph - N/A   Overcast
5:19 PM 46.4 °F 43.5 °F 44.6 °F 93% 29.82 in 2.5 mi NE 5.8 mph - N/A   Overcast
5:46 PM 46.4 °F 44.3 °F 44.6 °F 93% 29.81 in 3.0 mi NE 4.6 mph - N/A   Overcast
5:53 PM 46.0 °F 43.1 °F 44.1 °F 93% 29.78 in 3.0 mi ENE 5.8 mph - N/A   Overcast
6:02 PM 46.4 °F 44.3 °F 44.6 °F 93% 29.80 in 3.0 mi NE 4.6 mph - N/A   Overcast
6:14 PM 46.4 °F 43.5 °F 44.6 °F 93% 29.80 in 2.5 mi ENE 5.8 mph - N/A   Overcast
6:53 PM 44.1 °F 41.5 °F 43.0 °F 96% 29.79 in 2.0 mi NE 4.6 mph - N/A   Overcast
7:13 PM 44.6 °F 42.2 °F 44.6 °F 100% 29.81 in 1.8 mi ENE 4.6 mph - N/A   Overcast
7:48 PM 44.6 °F 42.2 °F 42.8 °F 93% 29.81 in 2.5 mi ENE 4.6 mph - N/A   Overcast
7:53 PM 44.1 °F 40.1 °F 43.0 °F 96% 29.78 in 3.0 mi ENE 6.9 mph - N/A   Overcast
8:53 PM 44.1 °F 40.8 °F 43.0 °F 96% 29.78 in 3.0 mi NE 5.8 mph - N/A   Overcast
9:11 PM 42.8 °F 38.0 °F 42.8 °F 100% 29.80 in 2.5 mi ENE 8.1 mph - N/A   Overcast
9:23 PM 42.8 °F 39.3 °F 42.8 °F 100% 29.81 in 4.0 mi ENE 5.8 mph - N/A   Overcast
9:41 PM 42.8 °F 40.1 °F 42.8 °F 100% 29.80 in 5.0 mi East 4.6 mph - N/A   Overcast
9:53 PM 43.0 °F 40.3 °F 42.1 °F 97% 29.78 in 6.0 mi East 4.6 mph - N/A   Overcast
10:53 PM 43.0 °F 41.3 °F 41.0 °F 93% 29.79 in 10.0 mi ENE 3.5 mph - N/A   Overcast
11:53 PM 43.0 °F 41.3 °F 41.0 °F 93% 29.79 in 10.0 mi ENE 3.5 mph - N/A   Overcast